EW5637 Weather Reports


Display with metric or nautical units.
time (UTC)temp
F
wind
direction
speed
MPH
gust
MPH
rain 1hr
in
rain 24hr
in
rain mn
in
humidity
%
barometer
mb
20260502203048 53 269 11.0 16.0 0.00 0.01 0.00 49 1012.1
20260502202540 54 296 8.0 14.0 0.00 0.01 0.00 52 1012.0
20260502202037 54 320 5.0 13.0 0.00 0.01 0.00 52 1011.9
20260502201545 53 301 9.0 18.0 0.00 0.01 0.00 51 1012.0
20260502201042 53 338 9.0 18.0 0.00 0.01 0.00 54 1012.0
20260502200543 53 344 14.0 17.0 0.00 0.01 0.00 52 1011.9
20260502200045 53 333 8.0 12.0 0.00 0.01 0.00 52 1012.0
20260502195541 53 313 6.0 16.0 0.00 0.01 0.00 51 1012.2
20260502195040 52 326 9.0 16.0 0.00 0.01 0.00 50 1012.4
20260502194559 53 292 11.0 16.0 0.00 0.01 0.00 50 1012.4
20260502194042 53 302 8.0 16.0 0.00 0.01 0.00 50 1012.4
20260502193540 54 340 11.0 16.0 0.00 0.01 0.00 52 1012.4
20260502193108 54 325 5.0 14.0 0.00 0.01 0.00 51 1012.7
20260502192538 53 298 9.0 14.0 0.00 0.01 0.00 47 1012.6
20260502192040 54 340 6.0 13.0 0.00 0.01 0.00 48 1012.6
20260502191559 54 338 2.0 13.0 0.00 0.01 0.00 48 1012.7
20260502191038 54 350 7.0 13.0 0.00 0.01 0.00 51 1012.8
20260502190541 54 270 5.0 12.0 0.00 0.01 0.00 51 1012.9
20260502190049 53 317 8.0 12.0 0.00 0.01 0.00 53 1013.0
20260502185541 53 330 5.0 12.0 0.00 0.01 0.00 52 1013.0
20260502185038 53 317 8.0 14.0 0.00 0.01 0.00 53 1013.1
20260502184559 53 297 9.0 14.0 0.00 0.01 0.00 50 1013.1
20260502184040 53 279 5.0 12.0 0.00 0.01 0.00 49 1013.2
20260502183540 52 256 8.0 13.0 0.00 0.01 0.00 51 1013.3
20260502183052 52 274 7.0 13.0 0.00 0.01 0.00 51 1013.3
20260502182543 52 280 8.0 13.0 0.00 0.01 0.00 48 1013.5
20260502182040 53 280 9.0 14.0 0.00 0.01 0.00 51 1013.4
20260502181553 53 268 9.0 14.0 0.00 0.01 0.00 47 1013.4
20260502181041 54 283 6.0 15.0 0.00 0.01 0.00 50 1013.4
20260502180540 53 298 10.0 15.0 0.00 0.01 0.00 49 1013.5
20260502164041 53 360 7.0 15.0 0.00 0.01 0.00 48 1013.5
20260502163537 54 262 5.0 12.0 0.00 0.01 0.00 49 1013.6
20260502163051 53 360 2.0 12.0 0.00 0.01 0.00 51 1013.6
20260502162543 52 298 2.0 12.0 0.00 0.01 0.00 49 1013.8
20260502162041 52 309 6.0 12.0 0.00 0.01 0.00 47 1013.8
20260502161611 53 81 3.0 13.0 0.00 0.01 0.00 47 1013.8
20260502161041 53 9 4.0 14.0 0.00 0.01 0.00 56 1013.8
20260502160541 52 313 9.0 14.0 0.00 0.01 0.00 57 1014.0
20260502160116 51 313 7.0 12.0 0.00 0.01 0.00 52 1014.0
20260502152042 52 261 10.0 16.0 0.00 0.01 0.00 50 1014.0
20260502151552 52 296 8.0 13.0 0.00 0.01 0.00 52 1013.9
20260502151037 52 281 7.0 12.0 0.00 0.01 0.00 51 1014.0
20260502150541 51 339 4.0 15.0 0.00 0.01 0.00 55 1014.1
20260502130541 47 320 12.0 16.0 0.00 0.01 0.00 68 1014.2
20260502130114 47 288 11.0 16.0 0.00 0.01 0.00 69 1014.1
20260502123541 45 303 10.0 14.0 0.00 0.01 0.00 71 1014.2
20260502123120 45 302 8.0 15.0 0.00 0.01 0.00 72 1014.2
20260502122540 45 316 10.0 16.0 0.00 0.01 0.00 71 1014.0
20260502122040 44 309 13.0 16.0 0.00 0.01 0.00 72 1014.1
20260502121551 44 295 11.0 16.0 0.00 0.01 0.00 72 1014.0
20260502121038 44 293 9.0 16.0 0.00 0.01 0.00 75 1014.1
20260502120539 44 300 12.0 16.0 0.00 0.01 0.00 74 1014.2
20260502115541 43 292 11.0 15.0 0.00 0.01 0.00 75 1014.1
20260502115041 43 295 8.0 14.0 0.00 0.01 0.00 76 1014.1
20260502114557 43 283 9.0 14.0 0.00 0.01 0.00 76 1014.0
20260502114042 43 306 8.0 14.0 0.00 0.01 0.00 77 1014.1
20260502113542 42 296 9.0 16.0 0.00 0.01 0.00 77 1014.1
20260502113046 42 281 10.0 16.0 0.00 0.01 0.00 77 1013.9
20260502112540 42 290 8.0 13.0 0.00 0.01 0.00 77 1014.0
20260502112040 42 281 9.0 13.0 0.00 0.01 0.00 77 1014.0
20260502111545 42 301 9.0 15.0 0.00 0.01 0.00 78 1013.9
20260502111044 41 282 9.0 15.0 0.00 0.01 0.00 78 1013.9
20260502110540 41 302 8.0 13.0 0.00 0.01 0.00 78 1013.9
20260502110048 41 292 7.0 13.0 0.00 0.01 0.00 79 1013.9
20260502105540 41 289 10.0 14.0 0.00 0.01 0.00 79 1014.0
20260502105036 41 294 8.0 14.0 0.00 0.01 0.00 79 1014.1
20260502104550 41 298 9.0 14.0 0.00 0.01 0.00 78 1014.1
20260502104041 41 288 7.0 13.0 0.00 0.01 0.00 78 1014.2
20260502103541 41 300 8.0 15.0 0.00 0.01 0.00 78 1014.2
20260502103053 41 298 11.0 15.0 0.00 0.01 0.00 78 1014.0
20260502102544 41 284 10.0 15.0 0.00 0.01 0.00 79 1014.0
20260502102041 42 297 9.0 14.0 0.00 0.01 0.00 79 1014.0
20260502101554 42 272 9.0 14.0 0.00 0.01 0.00 79 1014.0
20260502101043 41 271 9.0 12.0 0.00 0.01 0.00 79 1013.9
20260502100540 42 304 7.0 11.0 0.00 0.01 0.00 79 1014.0
20260502091040 44 265 4.0 12.0 0.00 0.01 0.00 78 1013.6
20260502090540 44 286 6.0 12.0 0.00 0.01 0.00 77 1013.6
20260502071040 43 314 0.0 5.0 0.00 0.01 0.00 81 1012.9
20260502070543 44 0 1.0 5.0 0.00 0.01 0.00 80 1013.0
20260502070052 44 315 1.0 4.0 0.00 0.01 0.00 81 1012.9
20260502065540 44 322 1.0 4.0 0.00 0.01 0.00 81 1012.9
20260502065037 44 326 0.0 2.0 0.00 0.01 0.00 81 1012.7
20260502064556 44 0 0.0 4.0 0.00 0.01 0.00 80 1012.6
20260502064040 45 0 0.0 5.0 0.00 0.01 0.00 80 1012.8
20260502063537 45 326 2.0 5.0 0.00 0.01 0.00 80 1012.6
20260502063101 46 323 2.0 5.0 0.00 0.01 0.00 79 1012.6
20260502062540 47 305 2.0 5.0 0.00 0.01 0.00 75 1012.5
20260502062037 47 0 1.0 8.0 0.00 0.01 0.00 75 1012.7
20260502061551 47 304 1.0 9.0 0.00 0.01 0.00 74 1012.7
20260502061039 47 315 3.0 9.0 0.00 0.01 0.00 74 1012.9
20260502060537 47 243 2.0 9.0 0.00 0.01 0.00 74 1012.9
20260502060047 48 0 0.0 6.0 0.00 0.01 0.00 75 1012.9
20260502055541 48 0 0.0 6.0 0.00 0.01 0.00 75 1012.9
20260502055040 48 211 1.0 9.0 0.00 0.01 0.00 74 1012.9
20260502054552 49 242 2.0 9.0 0.00 0.01 0.00 74 1012.8
20260502054040 49 262 3.0 9.0 0.00 0.01 0.00 75 1012.8
20260502053540 49 269 2.0 8.0 0.00 0.01 0.00 76 1012.9
20260502053056 49 248 2.0 9.0 0.00 0.01 0.00 76 1013.0
20260502052540 49 261 2.0 9.0 0.00 0.01 0.00 77 1012.9
20260502052041 49 270 4.0 9.0 0.00 0.01 0.00 77 1012.9
20260502051552 49 246 1.0 10.0 0.00 0.01 0.00 77 1013.0
20260502051040 49 284 2.0 11.0 0.00 0.01 0.00 77 1013.0
20260502050537 49 268 6.0 11.0 0.00 0.01 0.00 77 1013.0
20260502050051 49 252 6.0 12.0 0.00 0.01 0.00 78 1012.9
20260502045541 49 256 6.0 12.0 0.00 0.01 0.00 78 1012.9
20260502045041 49 273 4.0 14.0 0.00 0.01 0.00 78 1013.0
20260502044550 49 305 4.0 14.0 0.00 0.01 0.00 78 1012.9
20260502044043 49 269 7.0 14.0 0.00 0.01 0.00 78 1013.0
20260502043541 49 269 6.0 10.0 0.00 0.01 0.00 79 1012.8
20260502043103 49 297 5.0 9.0 0.00 0.01 0.00 80 1012.7
20260502042541 48 314 2.0 9.0 0.00 0.01 0.00 82 1012.7
20260502042042 48 258 1.0 7.0 0.01 0.01 0.00 85 1012.7
20260502041555 48 0 1.0 4.0 0.01 0.01 0.00 84 1012.6
20260502041038 48 0 0.0 4.0 0.01 0.01 0.00 85 1012.7
20260502040538 49 0 0.0 0.0 0.01 0.01 0.00 85 1012.7
20260502040045 49 0 0.0 0.0 0.01 0.01 0.00 84 1012.7
20260502035538 49 0 0.0 0.0 0.01 0.01 0.01 83 1012.7
20260502035038 50 0 0.0 0.0 0.01 0.01 0.01 81 1012.6
20260502034555 50 0 0.0 5.0 0.01 0.01 0.01 80 1012.7
20260502034039 50 0 0.0 5.0 0.01 0.01 0.01 79 1012.7
20260502033544 50 248 2.0 5.0 0.01 0.01 0.01 78 1012.6
20260502033100 51 266 0.0 7.0 0.01 0.01 0.01 77 1012.6
20260502032538 51 0 1.0 9.0 0.01 0.01 0.01 76 1012.5
20260502032038 51 300 3.0 11.0 0.00 0.00 0.00 75 1012.6
20260502031550 52 308 2.0 11.0 0.00 0.00 0.00 74 1012.7
20260502031038 52 282 6.0 12.0 0.00 0.00 0.00 72 1012.6
20260502030539 52 265 6.0 12.0 0.00 0.00 0.00 71 1012.5
20260502030050 52 264 3.0 12.0 0.00 0.00 0.00 71 1012.6
20260502025541 52 337 6.0 12.0 0.00 0.00 0.00 71 1012.3
20260502025040 52 343 4.0 11.0 0.00 0.00 0.00 71 1012.3
20260502024607 52 290 3.0 10.0 0.00 0.00 0.00 71 1012.2
20260502024039 52 325 5.0 13.0 0.00 0.00 0.00 71 1012.2
20260502023539 52 329 7.0 13.0 0.00 0.00 0.00 72 1012.1
20260502023050 52 333 8.0 12.0 0.00 0.00 0.00 72 1012.1
20260502022542 52 340 4.0 13.0 0.00 0.00 0.00 72 1012.2
20260502022041 52 322 6.0 13.0 0.00 0.00 0.00 72 1012.3
20260502021604 52 288 7.0 15.0 0.00 0.00 0.00 71 1012.1
20260502021042 52 286 6.0 18.0 0.00 0.00 0.00 72 1012.1
20260502020541 53 319 11.0 23.0 0.00 0.00 0.00 72 1011.9
20260502020045 53 302 13.0 23.0 0.00 0.00 0.00 73 1011.8
20260502015539 53 313 13.0 19.0 0.00 0.00 0.00 72 1011.7
20260502015039 53 302 12.0 19.0 0.00 0.00 0.00 72 1011.7
20260502014544 53 271 11.0 19.0 0.00 0.00 0.00 73 1011.8
20260502014038 50 307 12.0 18.0 0.00 0.00 0.00 78 1011.4
20260502013538 47 298 7.0 10.0 0.00 0.00 0.00 84 1011.4
20260502013051 47 0 0.0 2.0 0.00 0.00 0.00 85 1011.1
20260502012538 47 279 0.0 4.0 0.00 0.00 0.00 84 1011.0
20260502012038 47 279 1.0 4.0 0.00 0.00 0.00 83 1011.0
20260502011551 48 279 3.0 4.0 0.00 0.00 0.00 82 1010.9
20260502011039 48 0 0.0 2.0 0.00 0.00 0.00 81 1010.9
20260502010542 48 0 0.0 3.0 0.00 0.00 0.00 81 1010.8
20260502010100 49 0 0.0 3.0 0.00 0.00 0.00 80 1010.8
20260502005539 49 269 1.0 3.0 0.00 0.00 0.00 79 1010.7
20260502005039 50 269 0.0 2.0 0.00 0.00 0.00 79 1010.6
20260502004603 50 0 0.0 2.0 0.00 0.00 0.00 78 1010.5
20260502004038 50 269 0.0 2.0 0.00 0.00 0.00 79 1010.4
20260502003540 51 269 0.0 3.0 0.00 0.00 0.00 78 1010.4
20260502003051 51 0 1.0 3.0 0.00 0.00 0.00 76 1010.3
20260502002541 52 0 0.0 3.0 0.00 0.00 0.00 75 1010.1
20260502002040 52 0 0.0 3.0 0.00 0.00 0.00 74 1010.3
20260502001556 53 0 0.0 3.0 0.00 0.00 0.00 73 1010.4
20260502001040 53 274 0.0 3.0 0.00 0.00 0.00 73 1010.4
20260502000539 54 0 0.0 2.0 0.00 0.00 0.00 72 1010.5
20260502000053 54 0 0.0 2.0 0.00 0.00 0.00 71 1010.3
20260501235541 55 0 0.0 2.0 0.00 0.00 0.00 70 1010.1
20260501235038 55 0 0.0 2.0 0.00 0.00 0.00 67 1010.0
20260501234552 56 0 0.0 2.0 0.00 0.00 0.00 66 1010.2
20260501234038 56 0 0.0 1.0 0.00 0.00 0.00 65 1010.1
20260501233538 56 0 0.0 1.0 0.00 0.00 0.00 63 1009.9
20260501233058 57 279 0.0 4.0 0.00 0.00 0.00 63 1010.2
20260501232538 57 0 0.0 4.0 0.00 0.00 0.00 62 1010.0
20260501232040 57 279 2.0 4.0 0.00 0.00 0.00 62 1010.0
20260501231547 57 280 2.0 4.0 0.00 0.00 0.00 61 1009.9
20260501231038 58 280 1.0 6.0 0.00 0.00 0.00 61 1010.1
20260501230538 58 280 2.0 6.0 0.00 0.00 0.00 59 1010.0
20260501230052 58 264 2.0 8.0 0.00 0.00 0.00 59 1010.0
20260501225539 58 288 1.0 11.0 0.00 0.00 0.00 60 1010.1
20260501225039 58 260 4.0 11.0 0.00 0.00 0.00 58 1010.1
20260501224553 58 275 6.0 14.0 0.00 0.00 0.00 60 1010.2
20260501224038 58 281 7.0 15.0 0.00 0.00 0.00 58 1010.2
20260501223538 59 260 7.0 15.0 0.00 0.00 0.00 56 1010.4
20260501223102 59 251 6.0 13.0 0.00 0.00 0.00 54 1010.4
20260501222541 59 243 6.0 13.0 0.00 0.00 0.00 53 1010.4
20260501222042 60 259 4.0 8.0 0.00 0.00 0.00 53 1010.4
20260501221559 60 273 3.0 10.0 0.00 0.00 0.00 52 1010.4
20260501221040 60 303 2.0 11.0 0.00 0.00 0.00 52 1010.3
20260501220542 60 194 4.0 15.0 0.00 0.00 0.00 51 1010.2
20260501220056 60 194 5.0 16.0 0.00 0.00 0.00 52 1010.1
20260501215541 60 167 7.0 16.0 0.00 0.00 0.00 50 1010.1
20260501215041 60 167 2.0 10.0 0.00 0.00 0.00 51 1009.8
20260501214550 60 188 5.0 11.0 0.00 0.00 0.00 49 1009.8
20260501214040 60 157 4.0 11.0 0.00 0.00 0.00 50 1009.7
20260501213540 60 167 4.0 10.0 0.00 0.00 0.00 50 1009.7
20260501213056 60 190 5.0 12.0 0.00 0.00 0.00 50 1009.7
20260501212543 60 206 5.0 12.0 0.00 0.00 0.00 51 1009.7
20260501212044 61 187 5.0 13.0 0.00 0.00 0.00 52 1009.6
20260501211601 61 204 5.0 13.0 0.00 0.00 0.00 52 1009.6
20260501211043 61 140 6.0 11.0 0.00 0.00 0.00 50 1009.5
20260501210540 61 195 2.0 9.0 0.00 0.00 0.00 51 1009.6
20260501210055 61 141 3.0 9.0 0.00 0.00 0.00 51 1009.6
20260501205541 60 156 4.0 15.0 0.00 0.00 0.00 52 1009.6
20260501205042 60 111 5.0 15.0 0.00 0.00 0.00 51 1009.8
20260501204552 60 100 6.0 15.0 0.00 0.00 0.00 49 1009.7
20260501204042 60 137 7.0 15.0 0.00 0.00 0.00 50 1009.8
20260501203542 60 148 6.0 13.0 0.00 0.00 0.00 51 1009.7